Wind_Speed
12 12 11 11 11 11 11 10 10 9 9 9 8 8 8 8 7 6 6 6 6 6 5 5 4 4 3 4 4 4 5 5 6 7 8 8 9 9 9 10 11 11 11
11 11 11 11 10 10 10 10 9 9 9 9 8 8 7 7 7 7 7 7 7 7 7 6 5 4 4 5 5 5 5 6 7 8 9 9 9 10 10 10 11 12 13
10 10 10 10 10 10 9 9 9 9 9 8 8 8 7 7 8 8 8 8 8 8 8 7 6 5 5 6 6 6 7 7 8 9 9 9 9 9 9 9 10 12 12
9 9 9 9 9 9 9 9 9 9 9 9 8 8 8 8 8 8 8 9 8 8 8 8 7 7 7 7 7 7 7 8 9 9 9 9 9 10 10 10 11 11 12
7 8 8 8 8 9 9 9 8 9 9 9 9 9 9 9 9 9 9 9 9 9 9 9 9 8 8 8 8 8 8 9 9 9 9 9 10 11 11 11 12 12 13
5 6 6 7 7 8 8 8 8 8 9 9 9 9 9 9 9 10 10 10 9 9 9 10 10 9 9 10 9 10 10 9 10 10 10 10 11 11 12 12 13 13 14
3 4 4 5 6 6 7 8 7 7 8 8 9 9 9 10 10 10 10 10 10 10 10 11 11 11 11 11 11 11 10 10 10 10 11 11 11 12 13 14 14 14 15
2 2 3 3 5 6 6 6 6 7 7 8 9 9 9 10 10 10 10 10 10 10 10 11 11 11 12 11 11 11 11 11 11 11 11 11 12 13 14 15 15 16 16
3 3 3 3 4 5 6 6 6 7 7 8 9 9 10 11 11 10 10 10 10 10 11 11 12 12 12 12 12 13 12 11 11 11 12 12 13 14 15 16 16 16 16
4 4 4 4 5 5 6 6 7 7 8 9 10 10 11 12 11 11 10 10 11 11 11 12 13 13 14 13 13 14 13 12 11 11 12 13 13 14 14 15 16 16 17
6 6 6 6 6 6 6 7 7 8 8 9 10 11 12 12 12 11 11 11 11 12 12 13 13 14 14 14 14 14 13 13 13 12 12 13 13 13 14 14 15 15 16
7 8 7 7 7 7 8 8 8 8 9 9 10 11 12 12 12 12 12 12 12 12 13 13 14 14 14 15 14 14 14 14 14 13 13 13 13 14 14 15 15 15 16
9 9 9 9 9 9 9 9 9 9 9 9 10 12 12 13 13 13 13 12 13 13 14 14 14 14 14 15 15 15 14 15 15 15 15 15 14 14 15 15 15 15 16
11 11 11 11 11 11 10 11 11 11 11 11 12 13 13 13 14 14 14 13 14 14 15 15 15 15 15 15 15 15 15 16 17 17 17 16 16 16 16 16 16 17 17
13 12 12 11 11 11 11 12 12 12 12 13 13 13 14 15 15 15 14 14 15 15 16 16 16 16 16 16 16 16 16 17 17 18 18 17 17 17 17 17 18 18 18
14 13 14 13 13 13 13 13 13 14 14 14 15 15 16 16 16 16 16 16 16 16 16 17 17 17 18 18 17 17 17 18 18 19 19 19 18 18 19 19 19 19 19
16 16 16 16 15 15 15 15 15 15 16 16 16 17 17 17 17 18 18 18 18 18 18 18 19 19 19 19 20 19 19 19 19 20 20 20 20 20 20 20 21 21 21
20 19 19 18 18 17 18 18 18 18 19 18 18 19 19 20 20 20 20 20 20 20 20 20 20 20 21 21 21 21 20 21 21 21 21 20 21 22 21 22 22 22 22
22 22 21 21 21 20 20 21 20 20 21 21 21 21 22 22 22 22 22 22 22 21 22 22 22 22 22 22 22 22 23 23 23 23 23 22 22 23 23 23 23 23 23
25 24 24 24 23 23 23 22 22 23 23 23 23 23 24 24 24 24 23 23 24 24 24 24 24 24 23 24 23 24 24 25 25 25 25 24 24 24 24 24 24 24 24
25 25 24 25 25 25 25 24 24 25 25 25 26 26 26 26 26 26 26 26 26 26 26 26 25 25 25 25 25 26 26 27 26 26 26 26 26 26 25 25 25 25 25
27 26 25 26 26 26 26 27 27 28 28 28 28 29 29 28 28 28 27 28 27 28 27 27 27 26 26 27 27 27 28 28 27 28 28 28 26 26 26 26 25 26 26
28 28 28 28 28 29 29 30 30 30 30 30 31 31 31 30 30 29 29 29 29 29 28 28 28 28 28 28 28 28 29 29 29 29 29 28 27 27 27 27 27 28 29
30 30 30 30 30 30 31 31 31 32 32 32 32 32 32 31 31 31 32 32 31 31 31 30 30 30 30 29 29 29 29 29 30 30 30 29 29 28 28 28 29 29 29
31 31 31 30 30 30 31 32 33 33 33 33 33 33 33 32 32 32 33 33 33 33 33 32 32 32 31 31 30 30 30 30 30 30 30 29 29 28 29 29 29 29 30
32 32 31 32 31 31 31 33 34 35 35 34 34 34 34 34 34 34 34 35 35 35 35 34 33 33 33 32 32 31 31 31 31 31 31 30 30 30 30 30 31 31 31
Wind_Direction
62 65 66 67 67 66 66 67 69 70 69 65 62 59 55 52 47 43 32 20 16 14 6 354 351 342 327 326 325 322 315 309 303 299 299 302 300 296 287 283 283 286 289
60 60 61 62 64 63 62 63 64 64 63 59 56 53 48 41 38 34 28 18 14 9 6 5 0 352 337 331 333 331 319 309 307 305 303 302 303 300 297 293 287 285 288
56 55 56 59 61 60 58 59 60 57 54 51 50 48 44 37 31 25 21 17 13 11 14 14 4 352 337 331 329 326 325 320 314 310 306 301 300 303 303 303 299 294 292
50 51 53 53 55 55 56 57 57 53 50 50 46 42 38 34 29 26 23 19 17 16 17 12 5 356 347 334 326 320 316 314 312 312 308 305 306 306 306 303 303 300 298
40 43 45 48 51 50 52 54 53 49 46 46 43 40 35 30 26 25 23 19 17 16 14 10 6 357 352 345 335 323 316 313 311 313 312 311 310 310 311 310 307 304 302
31 34 38 42 46 47 45 46 45 43 42 40 38 36 33 28 24 21 19 17 18 16 13 9 4 358 351 348 342 333 320 316 312 312 312 312 313 314 314 313 313 311 305
13 25 33 31 37 39 36 37 37 35 33 31 27 26 24 21 18 16 14 14 12 9 6 3 1 358 354 348 344 339 331 320 315 313 313 312 311 312 313 312 312 314 313
331 354 10 7 15 14 15 19 22 21 19 17 15 15 13 12 10 7 6 5 3 0 358 357 357 355 352 347 345 341 336 328 321 317 314 312 310 312 312 311 311 311 312
304 310 327 336 343 346 350 355 359 359 359 359 2 4 3 1 1 359 357 356 356 354 352 351 350 348 347 344 342 341 337 330 322 317 317 315 313 313 313 312 312 311 311
290 292 293 307 318 322 330 343 346 346 347 349 350 351 350 349 349 350 347 346 348 347 345 344 343 342 343 342 340 339 339 333 326 321 320 319 318 316 314 313 314 314 312
285 286 285 287 294 305 318 328 334 336 336 337 339 342 343 342 341 340 339 339 338 336 338 338 339 338 337 337 336 337 338 337 332 325 321 320 320 318 319 320 319 319 317
277 279 277 276 281 293 304 312 317 323 325 327 330 333 335 336 336 334 332 332 332 331 333 335 334 333 335 336 334 332 333 332 331 328 326 325 321 319 319 320 321 321 320
269 272 274 275 278 285 292 299 305 314 318 319 322 324 327 329 332 332 331 330 329 329 330 332 332 330 330 330 330 329 329 329 328 327 324 323 322 320 318 319 319 320 320
266 266 267 271 277 281 286 293 301 309 313 316 316 317 319 321 325 328 328 327 327 328 328 328 329 327 326 325 325 324 324 323 323 322 321 320 318 317 315 314 315 316 317
264 266 267 271 277 280 283 288 294 300 306 309 310 310 312 314 316 319 322 321 322 323 323 322 322 322 322 321 320 318 319 320 319 319 318 317 316 316 315 314 314 314 315
261 263 267 272 277 280 283 286 291 295 299 303 305 306 308 310 312 312 315 315 316 317 317 318 318 319 319 320 319 316 316 316 316 316 315 314 313 313 312 312 313 313 313
257 263 266 271 276 278 282 285 289 293 297 298 300 303 305 307 308 309 309 310 311 311 312 312 313 314 314 315 316 315 311 312 313 313 312 312 311 310 310 310 310 310 310
259 263 266 270 272 276 281 286 289 293 296 297 298 299 301 302 303 304 305 306 307 307 308 309 311 312 311 309 311 311 309 310 310 309 308 308 308 308 308 308 308 308 309
258 261 264 267 269 274 280 284 287 290 292 294 295 296 298 299 300 300 301 302 303 304 304 305 306 307 307 306 307 307 307 307 308 307 307 304 304 305 305 306 306 306 306
258 259 260 264 268 273 278 280 283 286 289 292 293 294 294 295 297 298 298 299 300 301 302 303 302 302 302 302 302 303 304 304 304 305 305 305 303 302 304 304 304 305 305
257 259 261 264 267 271 274 277 280 282 285 287 290 292 292 293 294 295 297 298 298 299 299 300 299 300 300 300 300 300 301 302 301 302 302 302 302 300 302 303 304 304 303
255 259 262 264 266 270 273 275 277 279 283 285 287 289 289 290 292 293 294 296 297 297 296 297 298 299 300 299 300 299 298 299 301 301 301 301 299 299 299 301 303 305 304
253 257 260 263 266 270 273 275 276 278 282 283 285 286 287 287 288 290 291 293 293 293 294 294 295 297 298 299 298 298 298 298 298 299 300 300 297 297 298 298 299 302 303
256 257 261 264 267 270 272 273 275 278 281 283 284 285 286 286 287 288 290 291 291 290 291 292 292 293 294 296 296 296 297 297 297 298 300 299 299 298 297 297 298 299 300
256 259 262 266 268 271 271 272 274 277 278 282 284 285 286 285 286 288 288 288 289 290 291 291 291 291 291 292 292 293 294 295 295 296 298 297 297 296 296 296 297 297 298
257 260 264 266 269 270 271 272 274 276 278 279 281 283 284 283 284 285 286 286 287 288 290 289 288 289 290 291 290 291 291 292 293 294 296 296 295 294 294 294 296 297 297
Height
5918 5917 5916 5915 5914 5913 5912 5911 5910 5910 5909 5908 5907 5906 5906 5905 5904 5902 5901 5900 5899 5898 5897 5897 5896 5895 5894 5893 5892 5891 5890 5890 5889 5888 5887 5886 5885 5884 5883 5882 5881 5881 5879
5920 5919 5918 5917 5916 5915 5914 5913 5912 5911 5910 5909 5908 5908 5907 5905 5904 5903 5902 5901 5900 5898 5897 5896 5895 5894 5893 5892 5891 5890 5890 5889 5888 5887 5885 5885 5884 5882 5881 5880 5879 5878 5877
5923 5921 5920 5919 5918 5917 5916 5915 5914 5913 5912 5911 5910 5909 5908 5906 5905 5904 5902 5901 5900 5898 5897 5896 5895 5894 5893 5892 5890 5889 5888 5887 5886 5885 5884 5882 5881 5880 5879 5877 5876 5875 5873
5924 5923 5922 5921 5920 5919 5918 5916 5916 5914 5913 5912 5911 5910 5909 5907 5906 5904 5903 5901 5900 5898 5897 5896 5895 5894 5892 5891 5889 5888 5887 5886 5885 5883 5882 5881 5879 5878 5877 5875 5873 5872 5870
5926 5925 5924 5923 5921 5920 5919 5918 5917 5916 5915 5913 5912 5911 5910 5908 5907 5905 5903 5902 5900 5898 5897 5895 5894 5893 5891 5890 5888 5887 5885 5884 5883 5882 5880 5879 5877 5876 5875 5873 5871 5869 5868
5927 5926 5925 5924 5923 5922 5921 5919 5918 5917 5916 5914 5913 5912 5910 5909 5907 5905 5904 5902 5900 5899 5897 5895 5894 5892 5891 5889 5887 5886 5884 5883 5881 5880 5878 5877 5876 5874 5872 5870 5868 5867 5865
5927 5927 5926 5925 5924 5923 5922 5920 5919 5918 5916 5915 5914 5912 5911 5909 5907 5905 5904 5902 5900 5899 5897 5895 5894 5892 5890 5888 5886 5884 5882 5881 5879 5878 5876 5875 5873 5872 5870 5868 5866 5864 5862
5927 5927 5926 5925 5924 5923 5922 5921 5920 5918 5917 5916 5914 5912 5911 5909 5907 5905 5904 5902 5900 5899 5897 5895 5893 5891 5889 5887 5885 5883 5881 5879 5877 5876 5874 5873 5871 5869 5867 5866 5863 5861 5859
5926 5926 5925 5925 5924 5923 5922 5921 5920 5918 5917 5916 5914 5912 5911 5909 5907 5905 5903 5902 5900 5898 5896 5894 5892 5890 5888 5886 5884 5882 5879 5877 5875 5874 5872 5870 5868 5866 5864 5862 5860 5858 5856
5925 5925 5924 5924 5923 5923 5922 5920 5919 5918 5917 5915 5914 5912 5910 5908 5906 5904 5902 5901 5899 5897 5895 5893 5891 5889 5887 5885 5883 5880 5878 5875 5873 5871 5870 5868 5866 5863 5861 5859 5857 5855 5853
5924 5924 5923 5923 5922 5921 5920 5920 5918 5917 5916 5914 5913 5911 5909 5907 5905 5903 5901 5899 5898 5896 5894 5892 5890 5888 5886 5883 5881 5879 5877 5874 5872 5869 5867 5865 5863 5860 5858 5856 5854 5851 5849
5922 5922 5921 5921 5920 5920 5919 5918 5917 5916 5914 5913 5911 5909 5907 5905 5903 5901 5900 5898 5896 5894 5892 5890 5888 5886 5883 5881 5879 5877 5875 5872 5870 5867 5865 5863 5860 5858 5856 5853 5851 5848 5846
5920 5920 5920 5919 5919 5918 5917 5916 5915 5914 5913 5911 5910 5908 5906 5904 5902 5900 5898 5896 5894 5892 5890 5888 5885 5883 5881 5879 5877 5875 5873 5870 5868 5865 5862 5860 5858 5855 5853 5850 5848 5845 5843
5917 5917 5917 5917 5916 5916 5915 5914 5913 5912 5911 5909 5908 5906 5904 5902 5900 5898 5896 5894 5892 5890 5888 5885 5883 5881 5879 5876 5874 5872 5870 5867 5865 5862 5860 5857 5855 5852 5850 5847 5845 5842 5839
5913 5914 5914 5914 5914 5913 5912 5911 5910 5909 5908 5907 5905 5903 5902 5900 5898 5895 5894 5892 5890 5887 5885 5883 5880 5878 5876 5873 5871 5869 5867 5864 5862 5859 5857 5854 5851 5849 5846 5844 5841 5839 5836
5909 5910 5910 5910 5910 5909 5909 5908 5907 5906 5905 5903 5902 5900 5898 5897 5895 5893 5891 5889 5886 5884 5882 5880 5877 5875 5872 5870 5868 5865 5863 5861 5858 5856 5853 5850 5848 5845 5842 5840 5837 5835 5832
5905 5905 5906 5906 5906 5906 5905 5904 5903 5902 5901 5900 5898 5897 5895 5893 5891 5889 5887 5885 5883 5881 5878 5876 5873 5871 5869 5866 5864 5861 5859 5856 5854 5851 5848 5846 5843 5841 5838 5835 5833 5830 5827
5900 5900 5901 5901 5901 5901 5901 5900 5899 5898 5897 5895 5894 5892 5890 5888 5886 5885 5883 5881 5879 5876 5874 5872 5869 5867 5864 5862 5859 5856 5853 5851 5849 5846 5843 5841 5838 5836 5833 5830 5828 5825 5822
5894 5895 5895 5896 5896 5896 5895 5895 5894 5893 5892 5891 5889 5887 5885 5883 5882 5880 5878 5876 5873 5871 5869 5867 5864 5862 5859 5857 5854 5851 5849 5846 5843 5841 5838 5835 5833 5831 5828 5825 5822 5819 5816
5888 5888 5889 5890 5890 5890 5889 5889 5888 5887 5886 5885 5884 5882 5880 5878 5876 5874 5872 5870 5868 5866 5863 5861 5858 5856 5854 5851 5849 5846 5843 5840 5838 5835 5832 5830 5827 5825 5822 5819 5816 5813 5810
5881 5882 5882 5883 5883 5883 5883 5883 5882 5881 5880 5878 5877 5875 5873 5871 5869 5868 5866 5864 5861 5859 5857 5855 5852 5850 5847 5845 5842 5839 5837 5834 5831 5828 5826 5823 5820 5818 5815 5812 5810 5807 5804
5874 5875 5876 5876 5876 5876 5876 5876 5875 5874 5873 5871 5870 5868 5866 5864 5862 5860 5859 5857 5854 5852 5850 5847 5845 5842 5840 5838 5835 5833 5830 5827 5824 5821 5818 5816 5813 5811 5808 5805 5803 5800 5797
5866 5867 5868 5868 5869 5869 5868 5868 5867 5866 5865 5863 5862 5860 5858 5856 5854 5852 5851 5849 5846 5844 5842 5839 5837 5835 5833 5830 5828 5825 5822 5819 5816 5813 5811 5808 5805 5803 5800 5798 5795 5793 5790
5858 5859 5860 5860 5861 5861 5860 5859 5859 5858 5856 5855 5853 5851 5849 5847 5846 5844 5842 5840 5838 5835 5833 5831 5829 5827 5825 5823 5820 5817 5814 5812 5809 5806 5803 5800 5798 5795 5793 5790 5788 5785 5782
5850 5851 5851 5852 5852 5852 5851 5850 5849 5849 5847 5846 5844 5842 5840 5838 5837 5835 5833 5831 5829 5826 5824 5822 5820 5817 5816 5814 5812 5809 5806 5804 5801 5798 5795 5792 5790 5787 5785 5782 5779 5777 5774
5841 5842 5842 5843 5843 5842 5842 5841 5840 5839 5838 5836 5835 5833 5831 5829 5827 5825 5824 5821 5819 5817 5815 5812 5810 5808 5806 5804 5802 5800 5797 5795 5792 5789 5786 5784 5781 5779 5776 5774 5771 5769 5766